[Date Prev][Date Next][Thread Prev][Thread Next] - [Date Index][Thread Index][Author Index]
2 Line ISS Keps 7-12
- Subject: [sarex] 2 Line ISS Keps 7-12
- From: "Dave Larsen PhD" <doc@xxxxxxxxxxx>
- Date: Tue, 11 Jul 2006 20:44:13 -0700
ISS
1 25544U 98067A 06192.98321196 .00008369 00000-0 56049-4 0 2758
2 25544 051.6339 059.7518 0010431 067.1072 073.7409 15.76254165437079
----
Via the sarex mailing list at AMSAT.ORG courtesy of AMSAT-NA.
To unsubscribe, send "unsubscribe sarex" to Majordomo@amsat.org
AMSAT Home